SCP
0 0 0 0 0 0 0 0 0 0 0 0 0 0 0 0 0 0 0 0 0 0 0 0 0 0 0 0 0 0 0 0 0 0 0 0 0 0
0 0 0 0 0 0 0 0 0 0 0 0 0 0 0 0 0 0 0 0 0 0 0 0 0 0 0 0 0 0 0 0 0 0 0 0 0 0
0 0 0 0 0 0 0 0 0 0 0 0 0 0 0 0 0 0 0 0 0 0 0 0 0 0 0 0 0 0 0 0 0 0 0 0 0 0
0 0 0 0 0 0 0 0 0 0 0 0 0 0 0 0 0 0 0 0 0 0 0 0 0 0 0 0 0 0 0 0 0 0 0 0 0 0
0 0 0 0 0 0 0 0 0 0 0 0 0 0 0 0 0 0 0 0 0 0 0 0 0 0 0 0 0 0 0 0 0 0 0 0 0 0
0 0 0 0 0 0 0 0 0 0 0 0 0 0 0 0 0 0 0 0 0 0 0 0 0 0 0 0 0 0 0 0 0 0 0 0 0 0
0 0 0 0 0 0 0 0 0 0 0 0 0 0 0 0 0 0 0 0 0 0 0 0 0 0 0 0 0 0 0 0 0 0 0 0 0 0
0 0 0 0 0 0 0 0 0 0 0 0 0 0 0 0 0 0 0 0 0 0 0 0 0 0 0 0 0 0 0 0 0 0 0 0 0 0
0 0 0 0 0 0 0 0 0 0 0 0 0 0 0 0 0 0 0 0 0 0 0 0 0 0 0 0 0 0 0 0 0 0 0 0 0 0
0 0 0 0 0 0 0 0 0 0 0 0 0 0 0 0 0 0 0 0 0 0 0 0 0 0 0 0 0 0 0 0 0 0 0 0 0 0
0 0 0 0 0 0 0 0 0 0 0 0 0 0 0 0 0 0 0 0 0 0 0 0 0 0 0 0 0 0 0 0 0 0 0 0 0 0
0 0 0 0 0 0 0 0 0 0 0 0 0 0 0 0 0 0 0 0 0 0 0 0 0 0 0 0 0 0 0 0 0 0 0 0 0 0
0 0 0 0 0 0 0 0 0 0 0 0 0 0 0 0 0 0 0 0 0 0 0 0 0 0 0 0 0 0 0 0 0 0 0 0 0 0
0 0 0 0 0 0 0 0 0 0 0 0 0 0 0 0 0 0 0 0 0 0 0 0 0 0 0 0 0 0 0 0 0 0 0 0 0 0
0 0 0 0 0 0 0 0 0 0 0 0 0 0 0 0 0 0 0 0 0 0 0 0 0 0 0 0 0 0 0 0 0 0 0 0 0 0
0 0 0 0 0 0 0 0 0 0 0 0 0 0 0 0 0 0 0 0 0 0 0 0 0 0 0 0 0 0 0 0 0 0 0 0 0 0
0 0 0 0 0 0 0 0 0 0 0 0 0 0 0 0 0 0 0 0 0 0 0 0 0 0 0 0 0 0 0 0 0 0 0 0 0 0
0 0 0 0 0 0 0 0 0 0 0 0 0 0 0 0 0 0 0 0 0 0 0 0 0 0 0 0 0 0 0 0 0 0 0 0 0 0
0 0 0 0 0 0 0 0 0 0 0 0 0 0 0 0 0 0 0 0 0 0 0 0 0 0 0 0 0 0 0 0 0 0 0 0 0 0
0 0 0 0 0 0 0 0 0 0 0 0 0 0 0 0 0 0 0 0 0 0 0 0 0 0 0 0 0 0 0 0 0 0 0 0 0 0
0 0 0 0 0 0 0 0 0 0 0 0 0 0 0 0 0 0 0 0 0 0 0 0 0 0 0 0 0 0 0 0 0 0 0 0 0 0
0 0 0 0 0 0 0 0 0 0 0 0 0 0 0 0 0 0 0 0 0 0 0 0 0 0 0 0 0 0 0 0 0 0 0 0 0 0
0 0 0 0 0 0 0 0 0 0 0 0 0 0 0 0 0 0 0 0 0 0 0 0 0 0 0 0 0 0 0 0 0 0 0 0 0 0
Wind_Speed
4 4 3 2 2 2 2 3 3 3 3 2 2 2 2 2 4 3 3 6 8 8 8 7 7 8 8 8 9 9 10 10 9 9 9 10 11 12
3 3 3 2 2 2 3 3 3 3 3 2 2 2 3 3 5 3 3 7 7 8 8 8 7 8 8 8 9 9 10 9 8 9 9 10 10 11
3 4 4 3 3 2 2 2 3 3 4 3 2 2 2 3 4 3 3 3 4 7 8 8 8 8 8 8 8 9 9 8 8 8 9 10 10 11
5 4 5 3 3 3 3 3 3 3 4 4 3 2 3 3 3 4 4 3 3 6 7 7 7 8 8 8 8 8 8 8 7 8 9 10 10 10
5 5 5 4 4 3 3 3 3 3 3 3 4 2 2 2 3 3 3 3 3 4 6 6 7 8 8 8 8 7 7 6 6 7 8 8 9 10
5 5 5 5 6 5 4 4 3 3 3 3 4 3 2 2 2 3 3 2 3 3 4 5 6 7 7 7 7 6 6 6 6 6 7 7 9 10
5 5 5 6 6 5 4 4 4 3 3 3 3 3 2 2 2 2 3 3 3 2 1 2 3 2 3 5 6 6 6 6 6 6 6 7 8 9
5 5 5 5 6 8 8 7 5 4 4 4 3 4 4 3 2 2 2 2 3 1 1 3 1 2 2 2 5 7 6 6 6 6 7 8 8 9
5 4 4 4 5 4 6 7 6 7 7 5 5 5 4 4 3 3 3 2 3 2 1 3 1 2 3 4 7 5 5 6 6 7 7 8 8 9
5 5 5 4 4 5 4 4 5 5 6 5 5 5 4 3 4 4 3 2 2 2 1 2 2 3 3 3 5 4 5 5 6 7 8 8 8 9
4 4 4 5 6 6 4 4 4 4 5 6 5 5 5 4 2 1 1 1 2 2 1 1 2 3 3 2 3 5 6 6 7 7 8 8 8 8
3 3 5 6 7 6 4 4 5 4 3 2 3 4 3 3 3 3 3 2 1 2 1 1 1 2 3 2 2 2 3 5 7 8 8 8 7 4
3 3 3 6 7 6 5 4 5 3 2 2 2 2 2 2 2 2 2 2 2 3 2 1 1 1 1 3 3 2 1 2 3 4 6 7 7 5
3 3 3 6 6 6 5 5 5 3 2 2 2 2 2 2 1 1 2 2 2 3 3 2 2 2 2 3 3 2 2 2 2 3 3 6 6 7
3 5 5 6 5 4 5 4 3 2 2 2 2 2 2 2 1 0 0 0 1 1 1 1 2 2 2 2 3 3 3 3 2 2 3 3 3 4
2 3 4 4 3 3 3 2 2 2 2 2 2 2 1 1 1 1 1 0 0 1 1 1 1 2 2 2 3 3 2 2 2 3 3 3 3 3
1 0 1 1 1 1 1 1 1 1 2 2 2 1 1 1 1 1 1 1 1 1 1 1 1 1 2 2 2 3 2 2 3 3 3 4 4 3
0 1 1 1 1 1 1 1 1 2 2 2 2 2 2 2 1 1 1 1 1 1 1 1 1 1 2 2 2 2 2 2 3 3 3 4 5 4
1 1 2 2 1 1 1 1 1 1 1 1 2 2 1 1 1 1 1 1 1 1 1 1 1 1 2 3 2 1 2 3 3 3 3 3 5 6
1 1 2 2 1 1 1 1 1 1 1 1 1 2 2 2 2 2 2 2 1 1 1 1 1 1 2 2 2 3 4 3 2 3 4 4 4 7
1 1 1 1 1 1 1 1 1 1 1 1 2 2 2 2 2 2 2 2 2 1 1 1 2 2 1 0 1 2 3 4 5 3 4 4 5 4
1 2 2 2 1 1 1 1 1 2 2 1 2 2 2 2 2 2 2 2 1 1 1 1 1 1 0 1 2 3 4 4 5 6 5 4 3 3
2 2 2 2 1 1 2 2 2 2 2 2 2 1 1 1 1 2 2 2 1 1 1 1 1 1 1 1 2 2 4 4 4 4 4 6 7 9
Wind_Direction
225 223 225 223 214 225 222 209 208 252 267 252 254 271 274 276 299 290 285 297 307 309 309 310 310 310 310 310 309 308 306 306 306 305 305 308 313 313
228 227 228 226 221 219 222 229 220 222 252 253 255 281 291 298 301 293 279 302 303 304 306 307 307 307 305 304 305 305 303 303 303 304 307 309 312 312
235 231 236 224 219 222 222 226 231 219 248 273 264 274 277 291 299 289 280 274 281 298 304 305 306 304 301 302 305 302 301 298 300 303 305 309 310 312
231 229 237 232 223 223 220 225 235 229 232 268 278 269 264 269 280 288 292 288 275 290 301 304 305 305 304 303 302 301 299 295 297 302 304 307 311 316
229 228 231 224 228 225 223 226 233 243 232 247 272 270 270 270 288 292 286 281 290 293 299 301 302 308 309 310 305 308 307 299 298 306 311 313 315 318
229 230 229 226 229 225 228 230 227 236 239 241 259 269 264 269 269 282 297 298 297 294 298 302 303 308 310 313 310 314 315 309 303 308 313 317 318 318
233 233 235 237 243 238 235 230 220 226 233 240 250 263 261 260 260 263 285 304 296 267 291 296 301 299 301 305 311 310 312 311 309 310 316 320 320 319
231 238 239 236 246 249 248 245 233 226 229 234 242 246 251 248 248 256 275 304 299 271 296 297 290 289 294 286 298 306 308 312 310 310 313 319 321 319
229 235 244 244 245 241 248 251 248 245 237 231 236 239 244 239 230 248 250 258 264 263 288 290 294 290 292 297 304 302 308 312 313 313 315 317 317 315
235 234 236 244 244 243 237 240 245 247 247 240 237 243 244 237 222 225 231 262 273 266 253 278 289 290 301 295 293 297 313 317 315 316 317 315 313 313
246 240 236 240 249 250 239 241 250 257 260 257 260 263 261 258 242 202 211 244 282 268 227 248 280 301 297 291 294 310 318 321 319 318 317 315 314 318
250 250 249 254 258 253 236 237 250 256 255 263 263 268 253 235 236 210 203 220 264 271 230 236 257 317 309 295 304 314 319 320 323 321 320 320 321 327
246 250 254 263 266 261 254 238 252 256 230 231 238 248 241 228 227 230 212 208 224 247 226 209 250 263 262 298 307 310 318 321 325 321 324 324 323 326
246 245 253 266 269 271 264 254 254 249 228 221 230 239 237 235 237 237 230 230 229 238 224 198 219 238 263 286 291 302 314 313 321 324 323 323 325 324
252 260 265 269 271 266 265 257 243 223 218 221 234 243 238 224 201 199 14 50 331 288 256 215 208 229 241 260 278 289 305 311 315 322 322 320 315 318
269 273 281 278 278 268 260 243 230 224 227 225 230 231 221 201 191 195 210 202 5 334 332 300 232 219 250 260 261 281 288 289 310 317 319 316 311 305
249 235 260 264 243 244 247 232 222 228 245 232 216 215 219 220 211 198 189 198 230 272 319 346 332 275 257 262 266 271 283 294 296 309 318 315 307 300
245 226 257 259 254 246 239 237 230 229 231 227 211 209 216 216 209 188 193 196 212 240 267 293 326 336 338 322 262 265 287 292 300 308 307 306 308 309
243 242 243 241 240 242 241 233 237 232 222 217 205 203 204 199 200 200 204 211 221 236 243 247 273 300 309 309 307 285 282 297 304 308 303 297 295 300
268 257 260 251 235 235 239 229 224 228 228 216 202 198 198 194 200 211 210 213 223 237 259 263 267 265 257 270 281 298 295 285 292 299 304 302 292 294
276 268 263 256 245 239 238 231 224 225 226 217 208 205 201 196 202 209 212 222 227 229 250 276 283 297 293 302 300 302 303 302 299 291 299 306 310 311
276 269 265 255 242 237 235 229 231 231 222 221 222 214 207 203 203 208 209 214 225 227 254 278 301 322 316 279 286 298 309 319 321 316 301 284 288 298
276 271 262 255 243 239 234 232 236 230 214 208 212 214 203 209 205 203 203 206 212 224 243 273 321 338 309 274 282 296 307 317 324 329 321 318 307 294